Weather History for Albuquerque Double Eagle, NM

Change the Weather History Date:

Sunday, June 23, 2013

  Actual Average Record
Temperature  
Mean Temperature 71 °F -  
Max Temperature 89 °F - - ()
Min Temperature 53 °F - - ()
Cooling Degree Days 6    
Growing Degree Days 21 (Base 50)    
Moisture  
Dew Point 5 °F    
Average Humidity 9    
Maximum Humidity 14    
Minimum Humidity 4    
Precipitation  
Precipitation 0.00 in - - ()
Sea Level Pressure  
Sea Level Pressure 30.03 in    
Wind  
Wind Speed 8 mph (WSW)    
Max Wind Speed 18 mph    
Max Gust Speed 23 mph    
Visibility 10 miles    
Events      
T = Trace of Precipitation, MM = Missing Value Source: NWS Daily Summary

Daily Weather History Graph

Daily Weather History Graph

Search for Another Location

Airport:

Trip Planner

Search our weather history database for the weather conditions in past years. The results will help you decide how hot, cold, wet, or windy it might be!

Date:

Astronomy

Jun. 23, 2013 Rise Set
Actual Time 5:53 AM MDT 8:25 PM MDT
Civil Twilight 5:23 AM MDT 8:55 PM MDT
Nautical Twilight 4:47 AM MDT 9:31 PM MDT
Astronomical Twilight 4:06 AM MDT 10:12 PM MDT
Moon 8:43 PM MDT (6/23) 6:11 AM MDT (6/23)
Length of Visible Light 15h 31m
Length of Day
14h 31m
Full, 100% of the Moon is Illuminated
Jun 23
Full
Jun 29
Last Quarter
Jul 8
New
Jul 15
First Quarter
Jul 22
Full

Hourly Weather History & Observations

Time (MDT) Temp. Dew Point Humidity Pressure Visibility Wind Dir Wind Speed Gust Speed Precip Events Conditions
12:15 AM 66.2 °F 3.2 °F 8% 30.04 in 10.0 mi WNW 8.1 mph - N/A   Unknown
12:35 AM 64.4 °F 3.2 °F 9% 30.04 in 10.0 mi WNW 8.1 mph - N/A   Unknown
12:55 AM 66.2 °F 5.0 °F 9% 30.03 in 10.0 mi WNW 9.2 mph - N/A   Unknown
1:15 AM 62.6 °F 5.0 °F 10% 30.04 in 10.0 mi WNW 10.4 mph - N/A   Unknown
1:35 AM 59.0 °F 5.0 °F 12% 30.04 in 10.0 mi West 11.5 mph - N/A   Unknown
1:55 AM 59.0 °F 5.0 °F 12% 30.04 in 10.0 mi North - - N/A   Unknown
2:15 AM 57.2 °F 5.0 °F 12% 30.05 in 10.0 mi SSE 5.8 mph - N/A   Unknown
2:35 AM 64.4 °F 6.8 °F 10% 30.06 in 10.0 mi Calm Calm - N/A   Unknown
2:55 AM 62.6 °F 6.8 °F 11% 30.06 in 10.0 mi Calm Calm - N/A   Unknown
3:15 AM 57.2 °F 5.0 °F 12% 30.06 in 10.0 mi Calm Calm - N/A   Unknown
3:35 AM 55.4 °F 5.0 °F 13% 30.06 in 10.0 mi WNW 3.5 mph - N/A   Unknown
3:55 AM 53.6 °F 3.2 °F 13% 30.06 in 10.0 mi WSW 3.5 mph - N/A   Unknown
4:15 AM 53.6 °F 3.2 °F 13% 30.06 in 10.0 mi Calm Calm - N/A   Unknown
4:35 AM 53.6 °F 1.4 °F 12% 30.06 in 10.0 mi Calm Calm - N/A   Unknown
4:55 AM 53.6 °F 3.2 °F 13% 30.06 in 10.0 mi NNW 5.8 mph - N/A   Unknown
5:15 AM 55.4 °F 5.0 °F 13% 30.06 in 10.0 mi North 5.8 mph - N/A   Unknown
5:35 AM 55.4 °F 6.8 °F 14% 30.06 in 10.0 mi North 6.9 mph - N/A   Unknown
5:50 AM 55.4 °F 6.8 °F 14% 30.07 in 10.0 mi WNW 5.8 mph - N/A   Clear
6:50 AM 57.2 °F 6.8 °F 13% 30.08 in 10.0 mi Calm Calm - N/A   Clear
7:50 AM 68.0 °F 8.6 °F 10% 30.10 in 10.0 mi West 5.8 mph - N/A   Clear
8:50 AM 73.4 °F 8.6 °F 8% 30.11 in 10.0 mi Calm Calm - N/A   Clear
9:50 AM 75.2 °F 10.4 °F 8% 30.11 in 10.0 mi SSW 9.2 mph - N/A   Clear
10:50 AM 80.6 °F 14.0 °F 8% 30.10 in 10.0 mi SSW 11.5 mph - N/A   Clear
11:50 AM 80.6 °F 12.2 °F 8% 30.08 in 10.0 mi South 8.1 mph - N/A   Clear
12:50 PM 82.4 °F 10.4 °F 7% 30.06 in 10.0 mi West 8.1 mph - N/A   Clear
1:50 PM 87.8 °F 6.8 °F 5% 30.03 in 10.0 mi South 18.4 mph - N/A   Partly Cloudy
2:50 PM 87.8 °F 8.6 °F 5% 30.01 in 10.0 mi South 4.6 mph 23.0 mph N/A   Partly Cloudy
4:50 PM 89.6 °F 8.6 °F 5% 29.95 in 10.0 mi ESE 15.0 mph 20.7 mph N/A   Scattered Clouds
5:50 PM 89.6 °F 8.6 °F 5% 29.93 in 10.0 mi South 4.6 mph 17.3 mph N/A   Scattered Clouds
6:50 PM 89.6 °F 5.0 °F 4% 29.92 in 10.0 mi SSE 16.1 mph 20.7 mph N/A   Scattered Clouds
7:50 PM 86.0 °F 3.2 °F 4% 29.92 in 10.0 mi SSW 15.0 mph - N/A   Scattered Clouds
8:50 PM 77.0 °F -2.2 °F 4% 29.93 in 10.0 mi South 9.2 mph - N/A   Scattered Clouds
9:50 PM 77.0 °F -2.2 °F 4% 29.95 in 10.0 mi SSW 13.8 mph - N/A   Clear
10:15 PM 75.2 °F -0.4 °F 5% 29.96 in 10.0 mi SW 15.0 mph - N/A   Unknown
10:35 PM 75.2 °F -0.4 °F 5% 29.98 in 10.0 mi WSW 16.1 mph - N/A   Unknown
10:55 PM 75.2 °F -0.4 °F 5% 29.98 in 10.0 mi WSW 15.0 mph - N/A   Unknown
11:15 PM 73.4 °F 1.4 °F 6% 29.99 in 10.0 mi WSW 15.0 mph - N/A   Unknown
11:35 PM 71.6 °F 1.4 °F 6% 29.99 in 10.0 mi WSW 17.3 mph - N/A   Unknown
11:55 PM 71.6 °F 1.4 °F 6% 30.00 in 10.0 mi West 15.0 mph - N/A   Unknown